Tracking 30990 objects as of 8-Jul-2025
HD Live streaming from Space Station
objects crossing your sky now

SKYKRAFT-3

Track SKYKRAFT-3 now!
10-day predictions


NORAD ID: 56229
Int'l Code: 2023-084BN
Perigee: 408.3 km
Apogee: 416.1 km
Inclination: 97.6 °
Period: 92.7 minutes
Semi major axis: 6783 km
RCS: Unknown
Launch date: June 12, 2023
Source: Australia (AUS)
Launch site: AIR FORCE WESTERN TEST RANGE (AFWTR)
Your satellite tracking list
Your tracking list is empty




NASA's NSSDC Master Catalog

Two Line Element Set (TLE):
1 56229U 23084BN  25189.48336858  .00034577  00000-0  53456-3 0  9993
2 56229  97.5745 325.1564 0005705  80.1179 280.0718 15.54002186115478
Source of the keplerian elements: AFSPC